Showing default

SOLRAD 1 (GREB), 46

Orbit data source: Space-Track

SOLRAD 1 (GREB), 46 is a payload satellite owned by NRL (US) in LEO that was launched on Wed, 22 Jun 1960 UTC via a THOR ABLESTAR launch vehicle from the Air Force Eastern Test Range (AFETR). Payload-class satellites include a variety of spacecraft equipped with specific instruments for various scientific and technological missions. These include communications satellites like Starlink; space stations such as the ISS; scientific satellites like the Hubble; Earth observation satellites from companies like Planet Labs, Umbra, and HawkEye 360; GPS; miniature CubeSats for education and research; and military/defense satellites.

Loading next visibility...
Identifier
46, 1960-007B
Orbit
LEO
Last TLE update
6 hours ago
Origin
Manufacturer
NRL
Mission
Defense Sigint
Bus & Motor
NRL 20", Unknown motor
Mass
19 kg wet, 19 kg dry
Launch date (UTC)
1960-06-22 (65 years ago)
Launch vehicle
THOR ABLESTAR
Launch site
Air Force Eastern Test Range (AFETR)
Object type
Payload
Rocket body
Debris
Shape & HBR
Sphere, 0.3 m
Radar Cross Section
0.204 m², Medium (>0.1 m² and < 1m²)

Expand to show TLE details & history

TLE from 6 hours ago
0 SOLRAD 1 (GREB)
1    46U 60007B   25129.52981504  .00001424  00000-0  27776-3 0  9999
2    46  66.6885 247.8851 0203677 237.7499 120.3731 14.53927740398281
Epoch: 2025-05-09T12:42Z
Definitive object data (Epoch: 2025-05-09T12:42:56.019Z)
Latitude
-0.00005°
Longitude
-170.43298°
Altitude
790.169 km
Speed
7.419 km/s
True Right ascension
16h 31m 32s
True Declination
0° 00' 00"
Sunlit
Object was in full shadow at TLE epoch
Visualization TLE readout
Latitude
44.43185°
Longitude
-15.91121°
Altitude
758.475 km
Speed
7.459 km/s
Apparent Right ascension
07h 05m 16s
Apparent Declination
60° 14' 47"
Sunlit
Object is in daylight
Visualization observer readout
Local Sidereal Time
02:27:54
Azimuth
39.994° NE
Elevation
43.739°
Doppler factor
1
Orbital elements
Apogee altitude
855.6 km
Perigee altitude
566.812 km
Semi-major axis
7,089.343 km
Eccentricity
0.0203677
Inclination
66.6885°
RAAN
247.8851°
Arg. of periapsis
237.7499°
True anomaly
122.36073°
Mean anomaly
120.3731°
Eccentric anomaly
121.3695°
Mean motion
3.63609 °/min
BSTAR
0.00027776
Orbital period
99.01 mins
Loading maneuver chart data...
Loading SW <> Apogee altitude chart data...
Loading historical data...
Loading historical data...
Loading historical data...
Loading historical data...
Loading historical data...
Loading historical data...
Loading historical data...

SOLRAD 1 (GREB) Visibility forecast

Observer location: undefined°, undefined°

Span
Click to sort rows by Start time (UTC) header in descending order
Start Az.
Max El. time (UTC)
Max El. Az.
Max El.
End time (UTC)
End Az.
5 mins2025-05-09 18:17:08.048Z40.515° NE2025-05-09 18:17:08.048Z40.515° NE34.723°2025-05-09 18:22:08.048Z126.839° SE
6 mins2025-05-09 19:56:08.048Z293.944° NW2025-05-09 19:59:08.048Z250.036° W21.023°2025-05-09 20:02:08.048Z207.694° SW
9 mins2025-05-10 08:39:08.048Z167.383° S2025-05-10 08:43:08.048Z107.926° ESE29.996°2025-05-10 08:48:08.048Z46.641° ENE
8 mins2025-05-10 10:21:08.048Z249.683° W2025-05-10 10:25:08.048Z315.545° NNW31.037°2025-05-10 10:29:08.048Z9.594° NNE
6 mins2025-05-10 17:20:08.048Z6.7° NNE2025-05-10 17:23:08.048Z50.253° ENE21.318°2025-05-10 17:26:08.048Z92.12° ESE
|